星链-3369 (STARLINK-3369 )

导读

STARLINK-3369是美国SpaceX公司星链星座的一颗卫星,于2022年1月19日发射升空。星链计划旨在构建全球低轨互联网星座,提供全球覆盖、大容量、低时延的天基通信服务,可支持民用高速宽带接入,也具备潜在军事应用能力,服务范围覆盖全球各类通信与互联网需求。该卫星运行在近地轨道,是星链巨型星座组网的组成单元,助力SpaceX逐步完成数万颗卫星的天基网络部署。

Basic Information
目录编号:
51142
目录名称:
STARLINK-3369
国际标识:
2022-005AQ
轨道中心:
EARTH
卫星名称:
星链-3369
卫星全名:
星链-3369 (STARLINK-3369 )
卫星状态:
在轨 (已飞行1689 天)
发射日期:
2022-01-19 UTC
国别 :
美国 (US)
星等 :
--
Orbit Information
数据来源 国际轨道数据
星历时间: 2026-09-03T21:23:30+0800
15小时前
查看轨道信息
半长轴: 6856.639km
偏心率: 0.0006586
轨道倾角: 53.219°
近地点辐角 61.084°
升交点赤经 184.201°
平近点角 299.082°
近地点: 473.986km
远地点: 483.018km
周期: 94.173分钟
每日圈数: 15.290999
Detailed Information
固有亮度:
5
最大亮度:
2.5
卫星平台:
Starlink v1.5
覆盖范围:
全球
运营商:
太空探索技术公司
运营商所在国:
美国
制造商(研发单位):
太空探索技术公司
制造商所在国:
美国
使用方式:
暂无
Satellite Introduction
星链(Starlink)计划是由太空探索技术公司(SpaceX)提出的一个巨型低轨卫星互联网星座项目,计划在2019年至2024年间在太空搭建由约1.2万颗卫星组成的“星链”网络,其中1584颗将部署在地球上空550千米处的近地轨道,并从2020年开始工作。该卫星仍在工作。
2D Orbit Map
3D Orbit Map
Orbit Altitude Analysis Chart
Orbit Inclination Analysis Chart
Orbit Comprehensive Analysis Chart
View Comprehensive Chart
Conjunction Data List
Event ID Objects TCA Miss Dist (km) Collision Risk Probability Collision Risk Index (CRI) Action
CDM_260903-175105-114206-380422
2026-09-03T
17:51:05+0000
0.720 km
远距离
4.334657E-5 中风险 0.68
CDM_260905-103805-114205-973421
2026-09-05T
10:38:13+0000
0.851 km
远距离
2.568252E-5 中风险 0.63
CDM_260905-090605-114206-267521
2026-09-05T
09:06:57+0000
1.208 km
极远距离
1.382267E-5 中风险 0.58
CDM_260828-024505-114206-791821
2026-08-28T
02:45:03+0000
1.160 km
极远距离
1.296549E-5 中风险 0.57
CDM_260903-065105-114205-612623
2026-09-03T
06:51:51+0000
1.611 km
极远距离
2.262797E-6 低风险 0.42
CDM_260903-161805-114205-813823
2026-09-03T
16:18:06+0000
1.599 km
极远距离
1.8218E-6 低风险 0.4
CDM_260903-123305-114205-983722
2026-09-03T
12:33:47+0000
2.285 km
极远距离
1.775476E-6 低风险 0.4
CDM_260903-051705-114206-215923
2026-09-03T
05:17:42+0000
1.939 km
极远距离
1.619704E-6 低风险 0.39
CDM_260830-191905-114205-796521
2026-08-30T
19:19:31+0000
2.326 km
极远距离
1.616159E-6 低风险 0.39
CDM_260905-053505-114205-557221
2026-09-05T
05:35:09+0000
2.397 km
极远距离
1.398661E-6 低风险 0.38